Regional Weather Roundup
Issued by NWS

Home | Current Version | Previous Version | Text Only | Print | Product List | Glossary On
Versions: 1 2 3 4 5 6 7 8 9 10 11 12 13 14 15 16 17 18 19 20 21 22 23 24 25 26 27 28 29 30 31 32 33 34 35 36 37 38 39 40 41 42 43 44 45 46 47 48 49 50
000
ASUS43 KLOT 080608
RWRIL

ILLINOIS REGIONAL WEATHER ROUNDUP
NATIONAL WEATHER SERVICE CHICAGO/ROMEOVILLE IL
1200 AM CST MON FEB 08 2016

NOTE: "FAIR" INDICATES FEW OR NO CLOUDS BELOW 12,000 FEET WITH NO
SIGNIFICANT WEATHER AND/OR OBSTRUCTIONS TO VISIBILITY.

* THESE STATIONS ARE NOT UNDER NWS QUALITY CONTROL. THEY ALSO MAY NOT
  REPORT WEATHER SUCH AS PRECIPITATION OR FOG.

ILZ001-002-007-009-015-016-024-080700-
NORTHWEST ILLINOIS

CITY           SKY/WX    TMP DP  RH WIND       PRES   REMARKS
MOLINE         CLOUDY    34  30  85 W8        29.72F WCI  27
6HR MIN TEMP:  33; 6HR MAX TEMP:  39;

STERLING*      CLOUDY    34  28  80 W12       29.68F WCI  25
SAVANNA*       CLOUDY    34  31  89 W8        29.69F WCI  27
$$

ILZ003-004-008-010-011-017-018-080700-
NORTH CENTRAL ILLINOIS

CITY           SKY/WX    TMP DP  RH WIND       PRES   REMARKS
ROCKFORD       PTCLDY    32  27  81 SW8       29.69F WCI  25
6HR MIN TEMP:  32; 6HR MAX TEMP:  37;

FREEPORT*      CLOUDY    32  29  88 SW8       29.68F WCI  25
ROCHELLE*      CLEAR     31  29  92 SW9       29.69F WCI  23
DE KALB*       CLEAR     32  28  86 SW10      29.68F WCI  24
$$

ILZ005-006-012>014-019>023-080700-
NORTHEAST ILLINOIS

CITY           SKY/WX    TMP DP  RH WIND       PRES   REMARKS
CHICAGO-OHARE  CLEAR     32  27  81 SW8       29.68F WCI  25
6HR MIN TEMP:  32; 6HR MAX TEMP:  40;

CHICAGO-MIDWAY PTCLDY    34  26  72 SW8       29.69F WCI  27
6HR MIN TEMP:  34; 6HR MAX TEMP:  43;

AURORA         CLEAR     32  27  81 SW7       29.69F WCI  26
6HR MIN TEMP:  32; 6HR MAX TEMP:  37;

LANSING*       CLEAR     32  27  81 SW8       29.71F WCI  25
WAUKEGAN       CLEAR     32  27  81 VRB5      29.65F WCI  27
6HR MIN TEMP:  32; 6HR MAX TEMP:  39;

DUPAGE AIRPORT CLEAR     29  24  82 SW7       29.68F WCI  22
6HR MIN TEMP:  29; 6HR MAX TEMP:  38;

WHEELING       CLEAR     33  27  78 SW7       29.69F WCI  27
6HR MIN TEMP:  33; 6HR MAX TEMP:  41;

MORRIS*        CLEAR     31  27  84 SW5       29.70S WCI  27
NORTHERLY ISL    N/A     36  27  70 W7          N/A  WCI  30
$$

LMZ740>746-080700-
SOUTHERN LAKE MICHIGAN

STATION/POSITION SKY/WX   TEMP    WIND        PRES    VSBY  WAVE
                          AIR SEA DIR/SP/G                  HT/PER
                          (F)     (DEG/KT/KT) (MB)    (MI)  (FT/S)
HARRISON CRIB              38     260/ 16/ 18   N/A
BURNHAM HARBOR             35     260/  5/ 12   N/A
CALUMET HARBOR             36     230/  7/ 10 1005.5F
BURNS HARBOR               37     260/  8/ 11 1007.1F
MICHIGAN CITY              35     220/ 13/ 13   N/A
$$

ILZ025>027-034>036-040-047-049-050-058-095>099-080700-
WEST-CENTRAL ILLINOIS

CITY           SKY/WX    TMP DP  RH WIND       PRES   REMARKS
QUINCY         CLOUDY    35  30  82 W12       29.81F WCI  27
GALESBURG*     CLOUDY    33  30  88 W12G17    29.74F WCI  24
MACOMB*        MOCLDY    33  30  89 W12       29.80F WCI  24
JACKSONVILLE*  CLOUDY    38  32  79 W12       29.80F WCI  30
PITTSFIELD*    LGT RAIN  36  32  85 W12G17    29.82F WCI  28
$$

ILZ028>032-037-038-041>044-048-051>054-059>061-080700-
CENTRAL ILLINOIS

CITY           SKY/WX    TMP DP  RH WIND       PRES   REMARKS
PONTIAC        CLOUDY    33  30  88 SW6       29.75S WCI  28
BLOOMINGTON    CLOUDY    35  31  86 SW8       29.76F WCI  28
DECATUR        CLEAR     36  29  75 W9        29.77F WCI  29
PEORIA         PTCLDY    33  26  75 W8        29.76F WCI  26
6HR MIN TEMP:  31; 6HR MAX TEMP:  42;

LACON*         PTCLDY    34  27  75 SW6       29.74F WCI  29
LINCOLN*       CLEAR     36  29  76 W6        29.77F WCI  31
SPRINGFIELD    MOCLDY    36  31  82 W12       29.79F WCI  28
6HR MIN TEMP:  33; 6HR MAX TEMP:  43; 6HR PCP: TRACE;

TAYLORVILLE    CLOUDY    34  32  93 SW13      29.79F WCI  25
$$

ILZ033-039-045-046-055>057-062-063-080700-
EAST-CENTRAL ILLINOIS

CITY           SKY/WX    TMP DP  RH WIND       PRES   REMARKS
CHAMPAIGN      CLOUDY    35  32  88 SW7       29.76F WCI  29
RANTOUL*       MOCLDY    36  32  84 W7        29.74F WCI  31
MATTOON        CLOUDY    34  32  92 NW5       29.77F WCI  30
PARIS*         CLOUDY    37  33  86 W13       29.79R WCI  29
$$

ILZ079-100>102-080700-
SOUTHWEST ILLINOIS

CITY           SKY/WX    TMP DP  RH WIND       PRES   REMARKS
ALTON          CLOUDY    36  31  82 W9        29.83F WCI  29
BELLEVILLE     CLOUDY    37  32  80 CALM      29.83F
CAHOKIA*       CLOUDY    39  31  72 W3        29.84F
SPARTA*        CLEAR     37  30  77 CALM      29.85F
$$

ILZ064>066-069>071-074>076-080>082-084>086-088>090-092>094-080700-
SOUTH-CENTRAL ILLINOIS

CITY           SKY/WX    TMP DP  RH WIND       PRES   REMARKS
CARBONDALE     MOCLDY    40  30  67 W8        29.85F
6HR MIN TEMP:  40; 6HR MAX TEMP:  51; 6HR PCP: TRACE;

CAIRO*         PTCLDY    43  33  68 W7        29.88F
EFFINGHAM*     PTCLDY    34  34 100 SW5       29.81F WCI  29
MARION         MOCLDY    43  32  65 W5        29.85F
MT. VERNON     PTCLDY    37  30  75 SW7       29.84S WCI  32
CENTRALIA*     CLOUDY    38  35  89 W6        29.82F WCI  33
SALEM*         MOCLDY    38  33  82 SW7       29.82F WCI  33
METROPOLIS*    CLOUDY    44  36  72 W6        29.87F
$$

ILZ067-068-072-073-078-083-087-091-080700-
SOUTHEAST ILLINOIS

CITY           SKY/WX    TMP DP  RH WIND       PRES   REMARKS
LAWRENCEVILLE  LGT RAIN  40  35  83 W10       29.82S
FLORA*         CLOUDY    37  35  95 SW3       29.82F
FAIRFIELD*     MOCLDY    37  35  92 CALM      29.81F
HARRISBURG*    MOCLDY    39  34  83 W6        29.85S WCI  34
ROBINSON*      CLOUDY    38  33  85 W9G15     29.82F WCI  31
CARMI*         CLOUDY    39  35  87 NW5       29.83F
$$

ABBREVIATIONS USED IN REMARKS
   TC - TEMPERATURE IN CELSIUS
  WCI - WIND CHILL INDEX
   HX - HEAT INDEX
  VSB - VISIBILITY
$$




USA.gov is the U.S. government's official web portal to all federal, state and local government web resources and services.